Year,Month,Day,Hour,Minute,Value (Times are PST for temperature in C)
2019,02,13,00,00,-1.60
2019,02,13,00,01,-1.60
2019,02,13,00,02,-1.60
2019,02,13,00,03,-1.60
2019,02,13,00,04,-1.60
2019,02,13,00,05,-1.50
2019,02,13,00,06,-1.60
2019,02,13,00,07,-1.60
2019,02,13,00,08,-1.60
2019,02,13,00,09,-1.60
2019,02,13,00,10,-1.60
2019,02,13,00,11,-1.60
2019,02,13,00,12,-1.60
2019,02,13,00,13,-1.60
2019,02,13,00,14,-1.50
2019,02,13,00,15,-1.50
2019,02,13,00,16,-1.50
2019,02,13,00,17,-1.50
2019,02,13,00,18,-1.40
2019,02,13,00,19,-1.40
2019,02,13,00,20,-1.40
2019,02,13,00,21,-1.40
2019,02,13,00,22,-1.40
2019,02,13,00,23,-1.40
2019,02,13,00,24,-1.40
2019,02,13,00,25,-1.40
2019,02,13,00,26,-1.40
2019,02,13,00,27,-1.40
2019,02,13,00,28,-1.40
2019,02,13,00,29,-1.40
2019,02,13,00,30,-1.40
2019,02,13,00,31,-1.40
2019,02,13,00,32,-1.40
2019,02,13,00,33,-1.40
2019,02,13,00,34,-1.50
2019,02,13,00,35,-1.50
2019,02,13,00,36,-1.50
2019,02,13,00,37,-1.50
2019,02,13,00,38,-1.50
2019,02,13,00,39,-1.50
2019,02,13,00,40,-1.50
2019,02,13,00,41,-1.50
2019,02,13,00,42,-1.50
2019,02,13,00,43,-1.50
2019,02,13,00,44,-1.40
2019,02,13,00,45,-1.40
2019,02,13,00,46,-1.40
2019,02,13,00,47,-1.40
2019,02,13,00,48,-1.40
2019,02,13,00,49,-1.40
2019,02,13,00,50,-1.40
2019,02,13,00,51,-1.30
2019,02,13,00,52,-1.30
2019,02,13,00,53,-1.30
2019,02,13,00,54,-1.30
2019,02,13,00,55,-1.30
2019,02,13,00,56,-1.30
2019,02,13,00,57,-1.30
2019,02,13,00,58,-1.30
2019,02,13,00,59,-1.30
2019,02,13,01,00,-1.30
2019,02,13,01,01,-1.20
2019,02,13,01,02,-1.20
2019,02,13,01,03,-1.20
2019,02,13,01,04,-1.20
2019,02,13,01,05,-1.10
2019,02,13,01,06,-1.10
2019,02,13,01,07,-1.10
2019,02,13,01,08,-1.10
2019,02,13,01,09,-1.10
2019,02,13,01,10,-1.10
2019,02,13,01,11,-1.10
2019,02,13,01,12,-1.10
2019,02,13,01,13,-1.10
2019,02,13,01,14,-1.10
2019,02,13,01,15,-1.10
2019,02,13,01,16,-1.20
2019,02,13,01,17,-1.20
2019,02,13,01,18,-1.20
2019,02,13,01,19,-1.20
2019,02,13,01,20,-1.20
2019,02,13,01,21,-1.30
2019,02,13,01,22,-1.30
2019,02,13,01,23,-1.30
2019,02,13,01,24,-1.30
2019,02,13,01,25,-1.20
2019,02,13,01,26,-1.20
2019,02,13,01,27,-1.20
2019,02,13,01,28,-1.20
2019,02,13,01,29,-1.20
2019,02,13,01,30,-1.20
2019,02,13,01,31,-1.30
2019,02,13,01,32,-1.30
2019,02,13,01,33,-1.30
2019,02,13,01,34,-1.30
2019,02,13,01,35,-1.40
2019,02,13,01,36,-1.40
2019,02,13,01,37,-1.40
2019,02,13,01,38,-1.40
2019,02,13,01,39,-1.40
2019,02,13,01,40,-1.40
2019,02,13,01,41,-1.40
2019,02,13,01,42,-1.40
2019,02,13,01,43,-1.40
2019,02,13,01,44,-1.40
2019,02,13,01,45,-1.40
2019,02,13,01,46,-1.40
2019,02,13,01,47,-1.40
2019,02,13,01,48,-1.40
2019,02,13,01,49,-1.40
2019,02,13,01,50,-1.50
2019,02,13,01,51,-1.50
2019,02,13,01,52,-1.50
2019,02,13,01,53,-1.40
2019,02,13,01,54,-1.40
2019,02,13,01,55,-1.40
2019,02,13,01,56,-1.40
2019,02,13,01,57,-1.40
2019,02,13,01,58,-1.40
2019,02,13,01,59,-1.40
2019,02,13,02,00,-1.40
2019,02,13,02,01,-1.40
2019,02,13,02,02,-1.40
2019,02,13,02,03,-1.30
2019,02,13,02,04,-1.30
2019,02,13,02,05,-1.30
2019,02,13,02,06,-1.40
2019,02,13,02,07,-1.30
2019,02,13,02,08,-1.40
2019,02,13,02,09,-1.40
2019,02,13,02,10,-1.40
2019,02,13,02,11,-1.40
2019,02,13,02,12,-1.40
2019,02,13,02,13,-1.40
2019,02,13,02,14,-1.40
2019,02,13,02,15,-1.40
2019,02,13,02,16,-1.40
2019,02,13,02,17,-1.40
2019,02,13,02,18,-1.40
2019,02,13,02,19,-1.50
2019,02,13,02,20,-1.50
2019,02,13,02,21,-1.50
2019,02,13,02,22,-1.50
2019,02,13,02,23,-1.50
2019,02,13,02,24,-1.50
2019,02,13,02,25,-1.50
2019,02,13,02,26,-1.50
2019,02,13,02,27,-1.50
2019,02,13,02,28,-1.40
2019,02,13,02,29,-1.40
2019,02,13,02,30,-1.40
2019,02,13,02,31,-1.40
2019,02,13,02,32,-1.40
2019,02,13,02,33,-1.40
2019,02,13,02,34,-1.40
2019,02,13,02,35,-1.40
2019,02,13,02,36,-1.30
2019,02,13,02,37,-1.30
2019,02,13,02,38,-1.30
2019,02,13,02,39,-1.30
2019,02,13,02,40,-1.30
2019,02,13,02,41,-1.30
2019,02,13,02,42,-1.30
2019,02,13,02,43,-1.30
2019,02,13,02,44,-1.30
2019,02,13,02,45,-1.30
2019,02,13,02,46,-1.30
2019,02,13,02,47,-1.30
2019,02,13,02,48,-1.40
2019,02,13,02,49,-1.40
2019,02,13,02,50,-1.40
2019,02,13,02,51,-1.50
2019,02,13,02,52,-1.50
2019,02,13,02,53,-1.50
2019,02,13,02,54,-1.60
2019,02,13,02,55,-1.60
2019,02,13,02,56,-1.70
2019,02,13,02,57,-1.70
2019,02,13,02,58,-1.70
2019,02,13,02,59,-1.80
2019,02,13,03,00,-1.80
2019,02,13,03,01,-1.80
2019,02,13,03,02,-1.80
2019,02,13,03,03,-1.80
2019,02,13,03,04,-1.80
2019,02,13,03,05,-1.80
2019,02,13,03,06,-1.80
2019,02,13,03,07,-1.80
2019,02,13,03,08,-1.90
2019,02,13,03,09,-1.90
2019,02,13,03,10,-1.90
2019,02,13,03,11,-1.90
2019,02,13,03,12,-1.90
2019,02,13,03,13,-1.90
2019,02,13,03,14,-1.90
2019,02,13,03,15,-1.90
2019,02,13,03,16,-1.90
2019,02,13,03,17,-2.00
2019,02,13,03,18,-2.00
2019,02,13,03,19,-2.00
2019,02,13,03,20,-2.00
2019,02,13,03,21,-2.00
2019,02,13,03,22,-2.00
2019,02,13,03,23,-2.10
2019,02,13,03,24,-2.10
2019,02,13,03,25,-2.10
2019,02,13,03,26,-2.10
2019,02,13,03,27,-2.10
2019,02,13,03,28,-2.10
2019,02,13,03,29,-2.10
2019,02,13,03,30,-2.10
2019,02,13,03,31,-2.10
2019,02,13,03,32,-2.20
2019,02,13,03,33,-2.10
2019,02,13,03,34,-2.20
2019,02,13,03,35,-2.20
2019,02,13,03,36,-2.20
2019,02,13,03,37,-2.20
2019,02,13,03,38,-2.20
2019,02,13,03,39,-2.20
2019,02,13,03,40,-2.20
2019,02,13,03,41,-2.20
2019,02,13,03,42,-2.20
2019,02,13,03,43,-2.20
2019,02,13,03,44,-2.20
2019,02,13,03,45,-2.20
2019,02,13,03,46,-2.20
2019,02,13,03,47,-2.20
2019,02,13,03,48,-2.20
2019,02,13,03,49,-2.20
2019,02,13,03,50,-2.20
2019,02,13,03,51,-2.30
2019,02,13,03,52,-2.30
2019,02,13,03,53,-2.30
2019,02,13,03,54,-2.30
2019,02,13,03,55,-2.30
2019,02,13,03,56,-2.30
2019,02,13,03,57,-2.30
2019,02,13,03,58,-2.30
2019,02,13,03,59,-2.30
2019,02,13,04,00,-2.30
2019,02,13,04,01,-2.30
2019,02,13,04,02,-2.30
2019,02,13,04,03,-2.30
2019,02,13,04,04,-2.30
2019,02,13,04,05,-2.30
2019,02,13,04,06,-2.30
2019,02,13,04,07,-2.30
2019,02,13,04,08,-2.30
2019,02,13,04,09,-2.30
2019,02,13,04,10,-2.30
2019,02,13,04,11,-2.30
2019,02,13,04,12,-2.30
2019,02,13,04,13,-2.30
2019,02,13,04,14,-2.30
2019,02,13,04,15,-2.30
2019,02,13,04,16,-2.30
2019,02,13,04,17,-2.30
2019,02,13,04,18,-2.30
2019,02,13,04,19,-2.30
2019,02,13,04,20,-2.30
2019,02,13,04,21,-2.30
2019,02,13,04,22,-2.30
2019,02,13,04,23,-2.30
2019,02,13,04,24,-2.30
2019,02,13,04,25,-2.30
2019,02,13,04,26,-2.30
2019,02,13,04,27,-2.30
2019,02,13,04,28,-2.30
2019,02,13,04,29,-2.30
2019,02,13,04,30,-2.30
2019,02,13,04,31,-2.30
2019,02,13,04,32,-2.30
2019,02,13,04,33,-2.30
2019,02,13,04,34,-2.30
2019,02,13,04,35,-2.30
2019,02,13,04,36,-2.30
2019,02,13,04,37,-2.30
2019,02,13,04,38,-2.30
2019,02,13,04,39,-2.30
2019,02,13,04,40,-2.40
2019,02,13,04,41,-2.40
2019,02,13,04,42,-2.40
2019,02,13,04,43,-2.40
2019,02,13,04,44,-2.40
2019,02,13,04,45,-2.40
2019,02,13,04,46,-2.40
2019,02,13,04,47,-2.40
2019,02,13,04,48,-2.40
2019,02,13,04,49,-2.40
2019,02,13,04,50,-2.40
2019,02,13,04,51,-2.40
2019,02,13,04,52,-2.40
2019,02,13,04,53,-2.40
2019,02,13,04,54,-2.40
2019,02,13,04,55,-2.40
2019,02,13,04,56,-2.40
2019,02,13,04,57,-2.40
2019,02,13,04,58,-2.40
2019,02,13,04,59,-2.40
2019,02,13,05,00,-2.40
2019,02,13,05,01,-2.40
2019,02,13,05,02,-2.40
2019,02,13,05,03,-2.40
2019,02,13,05,04,-2.40
2019,02,13,05,05,-2.40
2019,02,13,05,06,-2.40
2019,02,13,05,07,-2.40
2019,02,13,05,08,-2.40
2019,02,13,05,09,-2.40
2019,02,13,05,10,-2.40
2019,02,13,05,11,-2.40
2019,02,13,05,12,-2.40
2019,02,13,05,13,-2.40
2019,02,13,05,14,-2.40
2019,02,13,05,15,-2.40
2019,02,13,05,16,-2.40
2019,02,13,05,17,-2.40
2019,02,13,05,18,-2.40
2019,02,13,05,19,-2.40
2019,02,13,05,20,-2.40
2019,02,13,05,21,-2.40
2019,02,13,05,22,-2.40
2019,02,13,05,23,-2.40
2019,02,13,05,24,-2.40
2019,02,13,05,25,-2.40
2019,02,13,05,26,-2.40
2019,02,13,05,27,-2.40
2019,02,13,05,28,-2.40
2019,02,13,05,29,-2.40
2019,02,13,05,30,-2.40
2019,02,13,05,31,-2.40
2019,02,13,05,32,-2.40
2019,02,13,05,33,-2.40
2019,02,13,05,34,-2.40
2019,02,13,05,35,-2.50
2019,02,13,05,36,-2.50
2019,02,13,05,37,-2.50
2019,02,13,05,38,-2.50
2019,02,13,05,39,-2.50
2019,02,13,05,40,-2.50
2019,02,13,05,41,-2.50
2019,02,13,05,42,-2.50
2019,02,13,05,43,-2.50
2019,02,13,05,44,-2.50
2019,02,13,05,45,-2.50
2019,02,13,05,46,-2.50
2019,02,13,05,47,-2.50
2019,02,13,05,48,-2.60
2019,02,13,05,49,-2.60
2019,02,13,05,50,-2.60
2019,02,13,05,51,-2.60
2019,02,13,05,52,-2.60
2019,02,13,05,53,-2.60
2019,02,13,05,54,-2.60
2019,02,13,05,55,-2.60
2019,02,13,05,56,-2.60
2019,02,13,05,57,-2.60
2019,02,13,05,58,-2.70
2019,02,13,05,59,-2.70
2019,02,13,06,00,-2.70
2019,02,13,06,01,-2.70
2019,02,13,06,02,-2.70
2019,02,13,06,03,-2.70
2019,02,13,06,04,-2.70
2019,02,13,06,05,-2.80
2019,02,13,06,06,-2.80
2019,02,13,06,07,-2.80
2019,02,13,06,08,-2.80
2019,02,13,06,09,-2.80
2019,02,13,06,10,-2.80
2019,02,13,06,11,-2.90
2019,02,13,06,12,-2.90
2019,02,13,06,13,-2.90
2019,02,13,06,14,-2.90
2019,02,13,06,15,-2.90
2019,02,13,06,16,-2.90
2019,02,13,06,17,-2.90
2019,02,13,06,18,-2.90
2019,02,13,06,19,-3.00
2019,02,13,06,20,-3.00
2019,02,13,06,21,-3.00
2019,02,13,06,22,-3.10
2019,02,13,06,23,-3.10
2019,02,13,06,24,-3.10
2019,02,13,06,25,-3.10
2019,02,13,06,26,-3.10
2019,02,13,06,27,-3.10
2019,02,13,06,28,-3.20
2019,02,13,06,29,-3.20
2019,02,13,06,30,-3.20
2019,02,13,06,31,-3.20
2019,02,13,06,32,-3.30
2019,02,13,06,33,-3.30
2019,02,13,06,34,-3.30
2019,02,13,06,35,-3.30
2019,02,13,06,36,-3.30
2019,02,13,06,37,-3.40
2019,02,13,06,38,-3.40
2019,02,13,06,39,-3.40
2019,02,13,06,40,-3.40
2019,02,13,06,41,-3.40
2019,02,13,06,42,-3.40
2019,02,13,06,43,-3.40
2019,02,13,06,44,-3.40
2019,02,13,06,45,-3.40
2019,02,13,06,46,-3.50
2019,02,13,06,47,-3.50
2019,02,13,06,48,-3.50
2019,02,13,06,49,-3.50
2019,02,13,06,50,-3.60
2019,02,13,06,51,-3.60
2019,02,13,06,52,-3.60
2019,02,13,06,53,-3.60
2019,02,13,06,54,-3.60
2019,02,13,06,55,-3.60
2019,02,13,06,56,-3.60
2019,02,13,06,57,-3.70
2019,02,13,06,58,-3.70
2019,02,13,06,59,-3.70
2019,02,13,07,00,-3.70
2019,02,13,07,01,-3.80
2019,02,13,07,02,-3.80
2019,02,13,07,03,-3.80
2019,02,13,07,04,-3.80
2019,02,13,07,05,-3.90
2019,02,13,07,06,-3.90
2019,02,13,07,07,-3.90
2019,02,13,07,08,-3.90
2019,02,13,07,09,-3.90
2019,02,13,07,10,-3.90
2019,02,13,07,11,-4.00
2019,02,13,07,12,-4.00
2019,02,13,07,13,-4.00
2019,02,13,07,14,-4.10
2019,02,13,07,15,-4.10
2019,02,13,07,16,-4.10
2019,02,13,07,17,-4.10
2019,02,13,07,18,-4.10
2019,02,13,07,19,-4.20
2019,02,13,07,20,-4.20
2019,02,13,07,21,-4.20
2019,02,13,07,22,-4.20
2019,02,13,07,23,-4.20
2019,02,13,07,24,-4.10
2019,02,13,07,25,-4.10
2019,02,13,07,26,-4.10
2019,02,13,07,27,-4.10
2019,02,13,07,28,-4.10
2019,02,13,07,29,-4.10
2019,02,13,07,30,-4.10
2019,02,13,07,31,-4.10
2019,02,13,07,32,-4.10
2019,02,13,07,33,-4.10
2019,02,13,07,34,-4.20
2019,02,13,07,35,-4.20
2019,02,13,07,36,-4.20
2019,02,13,07,37,-4.20
2019,02,13,07,38,-4.20
2019,02,13,07,39,-4.20
2019,02,13,07,40,-4.20
2019,02,13,07,41,-4.20
2019,02,13,07,42,-4.20
2019,02,13,07,43,-4.20
2019,02,13,07,44,-4.30
2019,02,13,07,45,-4.30
2019,02,13,07,46,-4.30
2019,02,13,07,47,-4.30
2019,02,13,07,48,-4.30
2019,02,13,07,49,-4.30
2019,02,13,07,50,-4.30
2019,02,13,07,51,-4.30
2019,02,13,07,52,-4.40
2019,02,13,07,53,-4.40
2019,02,13,07,54,-4.40
2019,02,13,07,55,-4.30
2019,02,13,07,56,-4.40
2019,02,13,07,57,-4.40
2019,02,13,07,58,-4.40
2019,02,13,07,59,-4.40
2019,02,13,08,00,-4.40
2019,02,13,08,01,-4.50
2019,02,13,08,02,-4.50
2019,02,13,08,03,-4.50
2019,02,13,08,04,-4.60
2019,02,13,08,05,-4.60
2019,02,13,08,06,-4.60
2019,02,13,08,07,-4.60
2019,02,13,08,08,-4.60
2019,02,13,08,09,-4.60
2019,02,13,08,10,-4.60
2019,02,13,08,11,-4.60
2019,02,13,08,12,-4.60
2019,02,13,08,13,-4.60
2019,02,13,08,14,-4.60
2019,02,13,08,15,-4.60
2019,02,13,08,16,-4.70
2019,02,13,08,17,-4.70
2019,02,13,08,18,-4.70
2019,02,13,08,19,-4.80
2019,02,13,08,20,-4.80
2019,02,13,08,21,-4.80
2019,02,13,08,22,-4.80
2019,02,13,08,23,-4.80
2019,02,13,08,24,-4.80
2019,02,13,08,25,-4.80
2019,02,13,08,26,-4.80
2019,02,13,08,27,-4.80
2019,02,13,08,28,-4.80
2019,02,13,08,29,-4.80
2019,02,13,08,30,-4.80
2019,02,13,08,31,-4.80
2019,02,13,08,32,-4.80
2019,02,13,08,33,-4.80
2019,02,13,08,34,-4.80
2019,02,13,08,35,-4.80
2019,02,13,08,36,-4.80
2019,02,13,08,37,-4.80
2019,02,13,08,38,-4.80
2019,02,13,08,39,-4.80
2019,02,13,08,40,-4.80
2019,02,13,08,41,-4.90
2019,02,13,08,42,-4.90
2019,02,13,08,43,-4.90
2019,02,13,08,44,-4.90
2019,02,13,08,45,-4.90
2019,02,13,08,46,-4.90
2019,02,13,08,47,-4.90
2019,02,13,08,48,-4.90
2019,02,13,08,49,-4.90
2019,02,13,08,50,-4.80
2019,02,13,08,51,-4.80
2019,02,13,08,52,-4.70
2019,02,13,08,53,-4.70
2019,02,13,08,54,-4.60
2019,02,13,08,55,-4.60
2019,02,13,08,56,-4.50
2019,02,13,08,57,-4.50
2019,02,13,08,58,-4.40
2019,02,13,08,59,-4.40
2019,02,13,09,00,-4.30
2019,02,13,09,01,-4.30
2019,02,13,09,02,-4.20
2019,02,13,09,03,-4.20
2019,02,13,09,04,-4.10
2019,02,13,09,05,-4.10
2019,02,13,09,06,-4.00
2019,02,13,09,07,-4.00
2019,02,13,09,08,-3.90
2019,02,13,09,09,-3.90
2019,02,13,09,10,-3.80
2019,02,13,09,11,-3.80
2019,02,13,09,12,-3.80
2019,02,13,09,13,-3.80
2019,02,13,09,14,-3.70
2019,02,13,09,15,-3.70
2019,02,13,09,16,-3.70
2019,02,13,09,17,-3.60
2019,02,13,09,18,-3.60
2019,02,13,09,19,-3.50
2019,02,13,09,20,-3.50
2019,02,13,09,21,-3.40
2019,02,13,09,22,-3.40
2019,02,13,09,23,-3.30
2019,02,13,09,24,-3.30
2019,02,13,09,25,-3.20
2019,02,13,09,26,-3.20
2019,02,13,09,27,-3.10
2019,02,13,09,28,-3.00
2019,02,13,09,29,-3.00
2019,02,13,09,30,-2.90
2019,02,13,09,31,-2.80
2019,02,13,09,32,-2.80
2019,02,13,09,33,-2.70
2019,02,13,09,34,-2.60
2019,02,13,09,35,-2.60
2019,02,13,09,36,-2.60
2019,02,13,09,37,-2.50
2019,02,13,09,38,-2.40
2019,02,13,09,39,-2.30
2019,02,13,09,40,-2.30
2019,02,13,09,41,-2.20
2019,02,13,09,42,-2.20
2019,02,13,09,43,-2.10
2019,02,13,09,44,-2.10
2019,02,13,09,45,-2.10
2019,02,13,09,46,-2.10
2019,02,13,09,47,-2.10
2019,02,13,09,48,-2.10
2019,02,13,09,49,-2.10
2019,02,13,09,50,-2.00
2019,02,13,09,51,-1.90
2019,02,13,09,52,-1.90
2019,02,13,09,53,-1.80
2019,02,13,09,54,-1.70
2019,02,13,09,55,-1.70
2019,02,13,09,56,-1.60
2019,02,13,09,57,-1.50
2019,02,13,09,58,-1.40
2019,02,13,09,59,-1.30
2019,02,13,10,00,-1.30
2019,02,13,10,01,-1.20
2019,02,13,10,02,-1.20
2019,02,13,10,03,-1.20
2019,02,13,10,04,-1.20
2019,02,13,10,05,-1.20
2019,02,13,10,06,-1.20
2019,02,13,10,07,-1.20
2019,02,13,10,08,-1.10
2019,02,13,10,09,-1.10
2019,02,13,10,10,-1.10
2019,02,13,10,11,-1.00
2019,02,13,10,12,-1.00
2019,02,13,10,13,-0.90
2019,02,13,10,14,-0.90
2019,02,13,10,15,-0.80
2019,02,13,10,16,-0.80
2019,02,13,10,17,-0.80
2019,02,13,10,18,-0.70
2019,02,13,10,19,-0.70
2019,02,13,10,20,-0.70
2019,02,13,10,21,-0.70
2019,02,13,10,22,-0.70
2019,02,13,10,23,-0.60
2019,02,13,10,24,-0.60
2019,02,13,10,25,-0.60
2019,02,13,10,26,-0.60
2019,02,13,10,27,-0.60
2019,02,13,10,28,-0.60
2019,02,13,10,29,-0.60
2019,02,13,10,30,-0.60
2019,02,13,10,31,-0.50
2019,02,13,10,32,-0.50
2019,02,13,10,33,-0.40
2019,02,13,10,34,-0.40
2019,02,13,10,35,-0.40
2019,02,13,10,36,-0.40
2019,02,13,10,37,-0.40
2019,02,13,10,38,-0.40
2019,02,13,10,39,-0.30
2019,02,13,10,40,-0.30
2019,02,13,10,41,-0.30
2019,02,13,10,42,-0.30
2019,02,13,10,43,-0.30
2019,02,13,10,44,-0.20
2019,02,13,10,45,-0.20
2019,02,13,10,46,-0.20
2019,02,13,10,47,-0.20
2019,02,13,10,48,-0.20
2019,02,13,10,49,-0.20
2019,02,13,10,50,-0.10
2019,02,13,10,51,-0.10
2019,02,13,10,52,0.00
2019,02,13,10,53,0.10
2019,02,13,10,54,0.10
2019,02,13,10,55,0.10
2019,02,13,10,56,0.20
2019,02,13,10,57,0.20
2019,02,13,10,58,0.30
2019,02,13,10,59,0.30
2019,02,13,11,00,0.30
2019,02,13,11,01,0.40
2019,02,13,11,02,0.40
2019,02,13,11,03,0.40
2019,02,13,11,04,0.40
2019,02,13,11,05,0.50
2019,02,13,11,06,0.50
2019,02,13,11,07,0.50
2019,02,13,11,08,0.50
2019,02,13,11,09,0.50
2019,02,13,11,10,0.50
2019,02,13,11,11,0.40
2019,02,13,11,12,0.40
2019,02,13,11,13,0.40
2019,02,13,11,14,0.40
2019,02,13,11,15,0.40
2019,02,13,11,16,0.40
2019,02,13,11,17,0.50
2019,02,13,11,18,0.50
2019,02,13,11,19,0.50
2019,02,13,11,20,0.50
2019,02,13,11,21,0.50
2019,02,13,11,22,0.50
2019,02,13,11,23,0.50
2019,02,13,11,24,0.50
2019,02,13,11,25,0.60
2019,02,13,11,26,0.60
2019,02,13,11,27,0.60
2019,02,13,11,28,0.60
2019,02,13,11,29,0.60
2019,02,13,11,30,0.60
2019,02,13,11,31,0.60
2019,02,13,11,32,0.60
2019,02,13,11,33,0.60
2019,02,13,11,34,0.60
2019,02,13,11,35,0.60
2019,02,13,11,36,0.60
2019,02,13,11,37,0.70
2019,02,13,11,38,0.70
2019,02,13,11,39,0.70
2019,02,13,11,40,0.60
2019,02,13,11,41,0.70
2019,02,13,11,42,0.60
2019,02,13,11,43,0.60
2019,02,13,11,44,0.60
2019,02,13,11,45,0.60
2019,02,13,11,46,0.60
2019,02,13,11,47,0.70
2019,02,13,11,48,0.70
2019,02,13,11,49,0.70
2019,02,13,11,50,0.80
2019,02,13,11,51,0.80
2019,02,13,11,52,0.80
2019,02,13,11,53,0.80
2019,02,13,11,54,0.80
2019,02,13,11,55,0.80
2019,02,13,11,56,0.80
2019,02,13,11,57,0.80
2019,02,13,11,58,0.70
2019,02,13,11,59,0.70
2019,02,13,12,00,0.70
2019,02,13,12,01,0.70
2019,02,13,12,02,0.70
2019,02,13,12,03,0.60
2019,02,13,12,04,0.60
2019,02,13,12,05,0.60
2019,02,13,12,06,0.60
2019,02,13,12,07,0.60
2019,02,13,12,08,0.60
2019,02,13,12,09,0.60
2019,02,13,12,10,0.60
2019,02,13,12,11,0.60
2019,02,13,12,12,0.60
2019,02,13,12,13,0.60
2019,02,13,12,14,0.70
2019,02,13,12,15,0.70
2019,02,13,12,16,0.70
2019,02,13,12,17,0.70
2019,02,13,12,18,0.70
2019,02,13,12,19,0.70
2019,02,13,12,20,0.70
2019,02,13,12,21,0.70
2019,02,13,12,22,0.70
2019,02,13,12,23,0.70
2019,02,13,12,24,0.70
2019,02,13,12,25,0.80
2019,02,13,12,26,0.80
2019,02,13,12,27,0.90
2019,02,13,12,28,0.90
2019,02,13,12,29,1.00
2019,02,13,12,30,1.10
2019,02,13,12,31,1.10
2019,02,13,12,32,1.20
2019,02,13,12,33,1.20
2019,02,13,12,34,1.30
2019,02,13,12,35,1.30
2019,02,13,12,36,1.30
2019,02,13,12,37,1.30
2019,02,13,12,38,1.20
2019,02,13,12,39,1.20
2019,02,13,12,40,1.20
2019,02,13,12,41,1.20
2019,02,13,12,42,1.10
2019,02,13,12,43,1.10
2019,02,13,12,44,1.10
2019,02,13,12,45,1.10
2019,02,13,12,46,1.10
2019,02,13,12,47,1.10
2019,02,13,12,48,1.10
2019,02,13,12,49,1.10
2019,02,13,12,50,1.20
2019,02,13,12,51,1.20
2019,02,13,12,52,1.20
2019,02,13,12,53,1.20
2019,02,13,12,54,1.20
2019,02,13,12,55,1.30
2019,02,13,12,56,1.30
2019,02,13,12,57,1.30
2019,02,13,12,58,1.40
2019,02,13,12,59,1.40
2019,02,13,13,00,1.40
2019,02,13,13,01,1.40
2019,02,13,13,02,1.40
2019,02,13,13,03,1.50
2019,02,13,13,04,1.50
2019,02,13,13,05,1.60
2019,02,13,13,06,1.60
2019,02,13,13,07,1.60
2019,02,13,13,08,1.60
2019,02,13,13,09,1.50
2019,02,13,13,10,1.50
2019,02,13,13,11,1.40
2019,02,13,13,12,1.40
2019,02,13,13,13,1.40
2019,02,13,13,14,1.30
2019,02,13,13,15,1.30
2019,02,13,13,16,1.30
2019,02,13,13,17,1.30
2019,02,13,13,18,1.30
2019,02,13,13,19,1.40
2019,02,13,13,20,1.40
2019,02,13,13,21,1.50
2019,02,13,13,22,1.50
2019,02,13,13,23,1.50
2019,02,13,13,24,1.60
2019,02,13,13,25,1.60
2019,02,13,13,26,1.60
2019,02,13,13,27,1.60
2019,02,13,13,28,1.60
2019,02,13,13,29,1.70
2019,02,13,13,30,1.70
2019,02,13,13,31,1.70
2019,02,13,13,32,1.70
2019,02,13,13,33,1.70
2019,02,13,13,34,1.70
2019,02,13,13,35,1.70
2019,02,13,13,36,1.80
2019,02,13,13,37,1.80
2019,02,13,13,38,1.80
2019,02,13,13,39,1.80
2019,02,13,13,40,1.80
2019,02,13,13,41,1.80
2019,02,13,13,42,1.80
2019,02,13,13,43,1.90
2019,02,13,13,44,1.90
2019,02,13,13,45,1.90
2019,02,13,13,46,1.90
2019,02,13,13,47,1.90
2019,02,13,13,48,1.90
2019,02,13,13,49,1.90
2019,02,13,13,50,1.90
2019,02,13,13,51,1.90
2019,02,13,13,52,1.90
2019,02,13,13,53,1.90
2019,02,13,13,54,2.00
2019,02,13,13,55,2.00
2019,02,13,13,56,2.00
2019,02,13,13,57,1.90
2019,02,13,13,58,1.90
2019,02,13,13,59,1.90
2019,02,13,14,00,1.80
2019,02,13,14,01,1.80
2019,02,13,14,02,1.80
2019,02,13,14,03,1.70
2019,02,13,14,04,1.70
2019,02,13,14,05,1.60
2019,02,13,14,06,1.60
2019,02,13,14,07,1.50
2019,02,13,14,08,1.50
2019,02,13,14,09,1.50
2019,02,13,14,10,1.50
2019,02,13,14,11,1.40
2019,02,13,14,12,1.40
2019,02,13,14,13,1.40
2019,02,13,14,14,1.30
2019,02,13,14,15,1.30
2019,02,13,14,16,1.20
2019,02,13,14,17,1.20
2019,02,13,14,18,1.10
2019,02,13,14,19,1.10
2019,02,13,14,20,1.00
2019,02,13,14,21,0.90
2019,02,13,14,22,0.80
2019,02,13,14,23,0.70
2019,02,13,14,24,0.70
2019,02,13,14,25,0.60
2019,02,13,14,26,0.50
2019,02,13,14,27,0.40
2019,02,13,14,28,0.40
2019,02,13,14,29,0.30
2019,02,13,14,30,0.20
2019,02,13,14,31,0.20
2019,02,13,14,32,0.10
2019,02,13,14,33,0.10
2019,02,13,14,34,0.00
2019,02,13,14,35,-0.10
2019,02,13,14,36,-0.10
2019,02,13,14,37,-0.20
2019,02,13,14,38,-0.20
2019,02,13,14,39,-0.20
2019,02,13,14,40,-0.30
2019,02,13,14,41,-0.30
2019,02,13,14,42,-0.30
2019,02,13,14,43,-0.30
2019,02,13,14,44,-0.30
2019,02,13,14,45,-0.30
2019,02,13,14,46,-0.30
2019,02,13,14,47,-0.30
2019,02,13,14,48,-0.30
2019,02,13,14,49,-0.30
2019,02,13,14,50,-0.40
2019,02,13,14,51,-0.40
2019,02,13,14,52,-0.40
2019,02,13,14,53,-0.40
2019,02,13,14,54,-0.40
2019,02,13,14,55,-0.40
2019,02,13,14,56,-0.50
2019,02,13,14,57,-0.50
2019,02,13,14,58,-0.40
2019,02,13,14,59,-0.40
2019,02,13,15,00,-0.40
2019,02,13,15,01,-0.40
2019,02,13,15,02,-0.40
2019,02,13,15,03,-0.40
2019,02,13,15,04,-0.50
2019,02,13,15,05,-0.50
2019,02,13,15,06,-0.50
2019,02,13,15,07,-0.60
2019,02,13,15,08,-0.60
2019,02,13,15,09,-0.60
2019,02,13,15,10,-0.60
2019,02,13,15,11,-0.60
2019,02,13,15,12,-0.60
2019,02,13,15,13,-0.60
2019,02,13,15,14,-0.60
2019,02,13,15,15,-0.60
2019,02,13,15,16,-0.60
2019,02,13,15,17,-0.60
2019,02,13,15,18,-0.60
2019,02,13,15,19,-0.60
2019,02,13,15,20,-0.60
2019,02,13,15,21,-0.50
2019,02,13,15,22,-0.50
2019,02,13,15,23,-0.40
2019,02,13,15,24,-0.40
2019,02,13,15,25,-0.40
2019,02,13,15,26,-0.40
2019,02,13,15,27,-0.40
2019,02,13,15,28,-0.40
2019,02,13,15,29,-0.40
2019,02,13,15,30,-0.30
2019,02,13,15,31,-0.30
2019,02,13,15,32,-0.20
2019,02,13,15,33,-0.20
2019,02,13,15,34,-0.20
2019,02,13,15,35,-0.20
2019,02,13,15,36,-0.20
2019,02,13,15,37,-0.30
2019,02,13,15,38,-0.30
2019,02,13,15,39,-0.40
2019,02,13,15,40,-0.40
2019,02,13,15,41,-0.40
2019,02,13,15,42,-0.40
2019,02,13,15,43,-0.40
2019,02,13,15,44,-0.40
2019,02,13,15,45,-0.40
2019,02,13,15,46,-0.40
2019,02,13,15,47,-0.50
2019,02,13,15,48,-0.50
2019,02,13,15,49,-0.60
2019,02,13,15,50,-0.60
2019,02,13,15,51,-0.70
2019,02,13,15,52,-0.70
2019,02,13,15,53,-0.80
2019,02,13,15,54,-0.80
2019,02,13,15,55,-0.80
2019,02,13,15,56,-0.80
2019,02,13,15,57,-0.80
2019,02,13,15,58,-0.80
2019,02,13,15,59,-0.80
2019,02,13,16,00,-0.90
2019,02,13,16,01,-0.90
2019,02,13,16,02,-0.90
2019,02,13,16,03,-0.90
2019,02,13,16,04,-0.90
2019,02,13,16,05,-0.80
2019,02,13,16,06,-0.80
2019,02,13,16,07,-0.80
2019,02,13,16,08,-0.80
2019,02,13,16,09,-0.80
2019,02,13,16,10,-0.80
2019,02,13,16,11,-0.90
2019,02,13,16,12,-0.90
2019,02,13,16,13,-0.90
2019,02,13,16,14,-0.90
2019,02,13,16,15,-0.80
2019,02,13,16,16,-0.80
2019,02,13,16,17,-0.80
2019,02,13,16,18,-0.90
2019,02,13,16,19,-0.90
2019,02,13,16,20,-0.90
2019,02,13,16,21,-0.90
2019,02,13,16,22,-0.90
2019,02,13,16,23,-0.90
2019,02,13,16,24,-0.90
2019,02,13,16,25,-0.90
2019,02,13,16,26,-0.90
2019,02,13,16,27,-0.90
2019,02,13,16,28,-0.90
2019,02,13,16,29,-0.90
2019,02,13,16,30,-0.90
2019,02,13,16,31,-0.90
2019,02,13,16,32,-1.00
2019,02,13,16,33,-1.00
2019,02,13,16,34,-1.00
2019,02,13,16,35,-1.00
2019,02,13,16,36,-1.10
2019,02,13,16,37,-1.10
2019,02,13,16,38,-1.10
2019,02,13,16,39,-1.10
2019,02,13,16,40,-1.10
2019,02,13,16,41,-1.10
2019,02,13,16,42,-1.10
2019,02,13,16,43,-1.20
2019,02,13,16,44,-1.20
2019,02,13,16,45,-1.20
2019,02,13,16,46,-1.20
2019,02,13,16,47,-1.20
2019,02,13,16,48,-1.20
2019,02,13,16,49,-1.20
2019,02,13,16,50,-1.20
2019,02,13,16,51,-1.20
2019,02,13,16,52,-1.20
2019,02,13,16,53,-1.20
2019,02,13,16,54,-1.20
2019,02,13,16,55,-1.20
2019,02,13,16,56,-1.20
2019,02,13,16,57,-1.20
2019,02,13,16,58,-1.20
2019,02,13,16,59,-1.20
2019,02,13,17,00,-1.20
2019,02,13,17,01,-1.20
2019,02,13,17,02,-1.20
2019,02,13,17,03,-1.20
2019,02,13,17,04,-1.20
2019,02,13,17,05,-1.20
2019,02,13,17,06,-1.20
2019,02,13,17,07,-1.20
2019,02,13,17,08,-1.20
2019,02,13,17,09,-1.20
2019,02,13,17,10,-1.20
2019,02,13,17,11,-1.20
2019,02,13,17,12,-1.30
2019,02,13,17,13,-1.30
2019,02,13,17,14,-1.30
2019,02,13,17,15,-1.20
2019,02,13,17,16,-1.20
2019,02,13,17,17,-1.20
2019,02,13,17,18,-1.20
2019,02,13,17,19,-1.20
2019,02,13,17,20,-1.20
2019,02,13,17,21,-1.20
2019,02,13,17,22,-1.20
2019,02,13,17,23,-1.20
2019,02,13,17,24,-1.20
2019,02,13,17,25,-1.20
2019,02,13,17,26,-1.20
2019,02,13,17,27,-1.20
2019,02,13,17,28,-1.20
2019,02,13,17,29,-1.20